Weather observations for the past three days for
Minocqua/Woodruff, Lakeland Airport/Noble F. Lee Memorial Field
Imperial (Metric)
Date Time (cdt) Wind (mph) Vis. (mi.) Weather Sky Cond. Temperature (ºF) Relative Humidity Wind Chill (°F) Heat Index (°F) Pressure Precipitation (in)
Air Dwpt 6 hour altimeter (in) sea level (mb) 1 hr 3 hr 6 hr
Max. Min.
24 07:35 S 3 10.00 Fair CLR 60.6 56.8 87% 29.96 0.0
24 07:15 Calm 10.00 Fair CLR 58.8 56.5 92% 29.96 0.0
24 06:55 Calm 10.00 Fair CLR 56.5 55.4 56.5 48.2 96% 29.96 0.0
24 06:40 Calm 10.00 Partly Cloudy SCT001 54.5 53.6 97% 29.96 0.0
24 06:15 Calm 10.00 Fair CLR 50.2 49.3 97% 29.96 0.0
24 05:55 Calm 10.00 Fair CLR 49.3 48.2 96% 29.96 0.0
24 05:35 Calm 10.00 Fair CLR 48.4 47.7 97% 29.95 0.0
24 05:15 Calm 10.00 Fair CLR 48.4 47.5 97% 29.96 0.0
24 04:55 Calm 10.00 Fair CLR 49.5 48.4 96% 29.96 0.0
24 04:35 Calm 10.00 Fair CLR 49.1 48.7 99% 29.95 0.0
24 04:15 Calm 10.00 Fair CLR 49.3 48.4 97% 29.94 0.0
24 03:55 Calm 10.00 Fair CLR 49.1 48.2 97% 29.94 0.0
24 03:35 Calm 10.00 Fair CLR 48.4 47.3 96% 29.94 0.0
24 03:15 Calm 10.00 Fair CLR 50.4 49.3 96% 29.94 0.0
24 02:55 Calm 10.00 Partly Cloudy SCT001 50 48.6 95% 29.94 0.0
24 02:35 Calm 10.00 Partly Cloudy SCT001 50.2 49.8 99% 29.94 0.0
24 02:15 Calm 10.00 Fair CLR 51.4 50 95% 29.94 0.0
24 01:55 Calm 10.00 Fair CLR 52 51.1 97% 29.94 0.0
24 01:35 Calm 10.00 Fair CLR 51.3 50.9 99% 29.94 0.0
24 01:15 Calm 10.00 Fair CLR 52.2 51.4 97% 29.93 0.0
24 00:55 Calm 10.00 Fair CLR 52.7 52.2 70.7 52 98% 29.93 0.0
24 00:35 Calm 10.00 Fair CLR 52.2 51.6 98% 29.94 0.0
24 00:15 Calm 10.00 Fair CLR 53.8 52.5 96% 29.94 0.0
23 23:55 Calm 10.00 Fair CLR 54.9 53.1 94% 29.94 0.0
23 23:35 Calm 10.00 Fair CLR 54.7 52.9 94% 29.93 0.0
23 23:15 Calm 10.00 Fair CLR 55.4 53.6 94% 29.93 0.0
23 22:55 Calm 10.00 Fair CLR 55.2 53.8 95% 29.92 0.0
23 22:35 Calm 10.00 Fair CLR 55.9 54.1 94% 29.92 0.0
23 22:15 Calm 10.00 Fair CLR 57 54.1 90% 29.92 0.0
23 21:55 Calm 10.00 Fair CLR 59.2 54.5 85% 29.91 0.0
23 21:35 Calm 10.00 Fair CLR 59.9 54.5 82% 29.91 0.0
23 21:15 Calm 10.00 Fair CLR 62.1 54 75% 29.9 0.0
23 20:55 Calm 10.00 Fair CLR 62.2 53.6 74% 29.89 0.0
23 20:35 N 5 10.00 Fair CLR 65.7 53.1 64% 29.88 0.0
23 19:55 N 9 10.00 Fair CLR 68.4 53.1 58% 29.87 0.0
23 18:55 N 7 10.00 Mostly Cloudy SCT046 SCT055 BKN075 70.7 54.5 73.9 65.8 57% 29.85 0.0 0.01
23 18:35 N 6 10.00 Partly Cloudy SCT046 SCT055 SCT065 69.3 55.2 61% 29.85 0.0
23 18:15 W 3 10.00 Partly Cloudy SCT045 SCT055 SCT075 70.9 56.3 60% 29.85 0.0
23 17:55 NW 3 10.00 Fair CLR 68.7 57.9 69% 29.84 0.0
23 17:35 N 5 10.00 Light Rain SCT090 SCT110 67.1 58.6 74% 29.84 0.0
23 17:15 N 3 10.00 Partly Cloudy SCT070 SCT100 SCT120 68 58.8 73% 29.84 0.0
23 16:55 NW 3 10.00 Light Rain SCT010 SCT044 BKN095 66 59.4 79% 29.84 0.0 0.01
23 16:35 N 9 10.00 Mostly Cloudy SCT046 SCT070 BKN090 71.2 53.2 53% 29.84 0.0
23 16:15 N 12 10.00 Mostly Cloudy SCT046 BKN060 BKN080 73 54.3 52% 29.84 0.0
23 15:55 NW 7 10.00 Partly Cloudy SCT045 SCT060 SCT080 71.8 54.5 55% 29.84 0.0
23 15:35 N 10 G 18 10.00 Mostly Cloudy SCT047 BKN060 BKN070 73.8 53.6 49% 29.84 0.0
23 15:15 W 6 10.00 Mostly Cloudy SCT045 BKN055 BKN070 72.5 53.4 51% 29.84 0.0
23 14:55 NW 9 G 17 10.00 Partly Cloudy SCT045 73.2 54.3 52% 29.83 0.0
23 14:35 NW 9 10.00 Fair CLR 71.8 51.1 48% 29.84 0.0
23 14:15 W 7 10.00 Fair CLR 72 50.5 47% 29.84 0.0
23 13:55 W 9 10.00 Fair CLR 71.1 51.4 50% 29.84 0.0
23 13:35 NW 10 10.00 Partly Cloudy SCT080 70.7 50.9 50% 29.84 0.0
23 13:15 NW 8 10.00 Partly Cloudy SCT080 70.3 52.9 54% 29.84 0.0
23 12:55 N 10 10.00 Partly Cloudy SCT080 69.4 52 69.6 54.1 54% 29.84 0.0
23 12:35 NW 12 10.00 Mostly Cloudy BKN080 BKN100 68.4 51.6 55% 29.84 0.0
23 12:15 NW 10 G 16 10.00 Mostly Cloudy SCT080 BKN090 69.4 53.1 56% 29.84 0.0
23 11:55 NW 10 G 16 10.00 Partly Cloudy SCT090 69.4 53.8 58% 29.84 0.0
23 11:35 NW 8 10.00 Fair CLR 67.6 54 62% 29.84 0.0
23 11:15 NW 8 10.00 Fair CLR 65.5 52.5 63% 29.84 0.0
23 10:55 N 9 10.00 Fair CLR 65.5 53.2 65% 29.84 0.0
23 10:35 N 6 10.00 Partly Cloudy SCT070 63.5 52.3 67% 29.84 0.0
23 10:15 NW 6 10.00 Mostly Cloudy BKN070 61.3 52.9 74% 29.84 0.0
23 09:55 N 3 10.00 Mostly Cloudy BKN070 58.3 52.3 81% 29.85 0.0
23 09:35 NW 6 10.00 Overcast OVC060 56.8 52.3 85% 29.84 0.0
23 09:15 NW 9 10.00 Overcast OVC060 56.7 52.9 87% 29.84 0.0
23 08:55 W 6 10.00 Overcast OVC060 56.5 53.2 89% 29.83 0.0
23 08:35 NW 5 10.00 Overcast OVC060 56.3 53.6 91% 29.83 0.0
23 08:15 NW 3 10.00 Overcast OVC060 55.8 52.5 89% 29.83 0.0
23 07:55 NW 5 10.00 Overcast SCT005 SCT022 OVC060 55.8 53.8 93% 29.83 0.0
23 07:35 NW 6 10.00 Overcast BKN005 BKN022 OVC060 55.4 54.3 96% 29.82 0.0
23 07:15 N 5 10.00 Overcast OVC003 54.7 54 97% 29.82 0.0
23 06:55 NW 6 10.00 Overcast OVC003 54 53.6 56.3 53.8 99% 29.81 0.0
23 06:35 NW 8 2.00 Fog/Mist OVC003 54 53.6 99% 29.81 0.0
23 06:15 NW 9 3.00 Fog/Mist OVC003 54.7 54.1 98% 29.8 0.0
23 05:55 N 8 4.00 Fog/Mist OVC003 55 54.5 98% 29.8 0.0
23 05:35 N 9 4.00 Fog/Mist OVC003 55.4 54.9 98% 29.79 0.0
23 05:15 N 7 10.00 Overcast OVC003 55.8 55.4 99% 29.78 0.0
23 04:55 N 7 10.00 Overcast OVC003 55.6 55 98% 29.77 0.0
23 04:35 N 8 10.00 Overcast OVC003 55.6 54.9 97% 29.77 0.0
23 04:15 N 9 10.00 Overcast OVC003 55.6 54.9 97% 29.77 0.0
23 03:55 N 5 4.00 Drizzle OVC003 55.4 54.7 97% 29.76 0.0
23 03:35 N 9 5.00 Drizzle OVC005 55.4 54.7 97% 29.76 0.0
23 03:15 N 8 7.00 Drizzle OVC005 56.3 55.4 97% 29.77 0.0
23 02:55 NW 8 4.00 Drizzle OVC005 55.9 55.4 98% 29.76 0.0
23 02:35 NW 6 3.00 Drizzle OVC005 55.9 55.2 97% 29.76 0.0
23 02:15 N 5 5.00 Drizzle OVC005 55.6 54.9 97% 29.75 0.0
23 01:55 N 6 5.00 Drizzle OVC005 55.6 54.7 97% 29.76 0.0
23 01:35 N 8 10.00 Rain OVC007 55.8 54.7 96% 29.76 0.0
23 01:15 N 5 10.00 Overcast OVC007 55.9 54.7 96% 29.76 0.0
23 00:55 NE 7 10.00 Overcast OVC007 55.9 54.3 62.8 55.9 94% 29.74 0.0
23 00:35 N 5 10.00 Overcast OVC007 55.9 54.5 95% 29.75 0.0
23 00:15 NE 5 10.00 Overcast OVC007 56.1 54.5 94% 29.75 0.0
22 23:55 NE 8 5.00 Fog/Mist BKN005 OVC011 56.3 55.4 97% 29.76 0.0
22 23:35 N 13 G 18 3.00 Fog/Mist BKN007 OVC011 56.8 55.6 96% 29.77 0.0
22 23:15 N 9 4.00 Fog/Mist OVC005 57.4 56.3 96% 29.77 0.0
22 22:55 N 9 10.00 Overcast OVC005 57.7 56.3 95% 29.77 0.0
22 22:35 N 9 10.00 Overcast OVC005 59 57.6 95% 29.77 0.0
22 22:15 N 8 10.00 Overcast OVC005 59.2 57.7 95% 29.76 0.0
22 21:55 NE 7 10.00 Overcast OVC005 59.9 58.3 94% 29.76 0.0
22 21:35 N 5 10.00 Overcast OVC005 60.3 58.6 94% 29.74 0.0
22 21:15 N 7 10.00 Overcast OVC005 60.8 59 94% 29.74 0.0
22 20:55 N 7 10.00 Overcast OVC005 60.8 59.4 95% 29.74 0.0
22 20:35 N 8 10.00 Overcast OVC007 61.3 59.5 94% 29.76 0.0
22 20:15 N 8 10.00 Overcast OVC007 62.1 59.9 93% 29.76 0.0
22 19:55 N 6 10.00 Overcast OVC007 62.2 59.7 92% 29.77 0.0
22 19:35 N 5 10.00 Overcast OVC007 62.6 59.9 91% 29.76 0.0
22 19:15 N 3 10.00 Overcast OVC007 62.6 59.9 91% 29.76 0.0
22 18:55 NE 5 10.00 Overcast OVC007 62.6 60.3 66.2 62.6 92% 29.74 0.0
22 18:35 NE 6 10.00 Overcast OVC007 62.8 60.3 92% 29.76 0.0
22 18:15 N 6 10.00 Overcast OVC007 63.1 60.6 92% 29.77 0.0
22 17:55 N 9 10.00 Overcast OVC007 64.8 61.3 89% 29.77 0.0
22 17:35 NE 6 10.00 Overcast OVC007 64.4 61.2 89% 29.78 0.0
22 17:15 NE 6 5.00 Fog/Mist BKN007 OVC013 63.5 61.5 93% 29.79 0.0
22 16:55 NE 3 10.00 Overcast BKN009 OVC016 64.6 61.5 90% 29.8 0.0
22 16:35 NE 7 10.00 Overcast OVC010 65.3 61.3 87% 29.8 0.0
22 16:15 NE 5 10.00 Overcast OVC008 64.8 61 88% 29.8 0.0
22 15:55 N 5 10.00 Overcast OVC008 65.3 61.7 88% 29.81 0.0
22 15:35 N 5 10.00 Overcast OVC008 65.3 61.7 88% 29.81 0.0
22 15:15 NE 8 10.00 Overcast BKN008 OVC012 65.7 61.7 87% 29.81 0.0
22 14:55 NE 7 10.00 Overcast OVC008 65.5 61.5 87% 29.8 0.0
22 14:35 NE 5 10.00 Overcast OVC008 65.3 61.7 88% 29.81 0.0
22 14:15 NE 3 10.00 Overcast OVC008 65.5 62.1 89% 29.82 0.0
22 13:55 E 3 10.00 Overcast OVC008 65.3 61.7 88% 29.81 0.0
22 13:35 NE 5 10.00 Overcast OVC008 64.8 61.3 89% 29.82 0.0
22 13:15 N 5 10.00 Overcast OVC008 64.6 61.7 90% 29.83 0.0
22 12:55 E 5 10.00 Overcast OVC008 64.6 61.7 65.1 59 90% 29.83 0.0 0.03
22 12:35 NE 6 10.00 Light Rain OVC008 64.8 62.1 91% 29.83 0.0
22 12:15 E 5 10.00 Overcast OVC008 64.4 61.3 90% 29.84 0.0
22 11:55 E 7 10.00 Overcast OVC006 64.6 62.1 92% 29.84 0.0
22 11:35 E 6 10.00 Overcast OVC006 63.7 61.7 93% 29.85 0.0
22 11:15 SE 8 10.00 Overcast OVC006 62.8 61.3 95% 29.85 0.0
22 10:55 SE 6 5.00 Light Drizzle BKN006 BKN029 OVC045 62.4 61.2 96% 29.87 0.0
22 10:35 E 5 7.00 Light Drizzle BKN006 BKN034 OVC040 61.3 60.1 96% 29.88 0.0
22 10:15 E 6 4.00 Light Drizzle BKN006 BKN018 OVC034 60.8 59.7 96% 29.89 0.0
22 09:55 E 5 4.00 Rain OVC006 60.8 59.7 96% 29.9 0.0 0.01 0.03
22 09:35 Calm 7.00 Drizzle OVC006 60.1 59 96% 29.91 0.0 0.01
22 09:15 E 5 5.00 Light Rain OVC006 59.9 58.6 96% 29.91 0.0 0.01
22 08:55 E 6 7.00 Light Rain OVC006 59.5 58.5 96% 29.92 0.0
22 08:35 E 6 10.00 Drizzle OVC008 59.5 58.3 96% 29.93 0.0
22 08:15 E 7 10.00 Drizzle OVC006 59.2 58.1 96% 29.93 0.0
22 07:55 SE 9 10.00 Light Rain OVC006 59.2 57.7 95% 29.94 0.0 0.02
22 07:35 SE 7 10.00 Light Drizzle OVC008 59 57.7 96% 29.95 0.0 0.02
22 07:15 SE 9 G 16 10.00 Light Rain OVC008 59 57.6 95% 29.94 0.0 0.02
22 06:55 SE 10 10.00 Light Rain OVC008 59 57.9 60.4 59 96% 29.95 0.0 0.02 0.11
22 06:35 SE 10 G 18 10.00 Light Rain BKN006 OVC012 59.7 58.5 96% 29.95 0.0 0.01
22 06:15 SE 8 10.00 Light Rain BKN008 OVC011 59.9 59 97% 29.96 0.0
22 05:55 SE 7 7.00 Rain OVC008 60.1 59.2 97% 29.98 0.0 0.09
22 05:35 SE 6 7.00 Rain BKN003 OVC010 60.1 59 96% 29.98 0.0 0.07
22 05:15 SE 8 7.00 Rain OVC003 60.3 59.4 97% 29.98 0.0 0.02
22 04:55 SE 5 7.00 Rain OVC005 60.1 59.2 97% 29.99 0.0
22 04:35 SE 7 10.00 Rain OVC005 60.3 59.2 96% 29.99 0.0
22 04:15 SE 3 10.00 Overcast OVC005 60.3 59 96% 30 0.0
22 03:55 E 6 10.00 Overcast OVC003 60.3 59 96% 30.01 0.0
22 03:35 E 5 10.00 Overcast OVC003 60.1 59 96% 30.01 0.0
22 03:15 SE 8 10.00 Overcast OVC005 60.1 59 96% 30.02 0.0
22 02:55 SE 8 10.00 Overcast OVC005 60.1 59 96% 30.04 0.0
22 02:35 SE 7 10.00 Overcast OVC005 60.1 59 96% 30.04 0.0
22 02:15 SE 6 10.00 Overcast OVC007 60.1 59 96% 30.06 0.0
22 01:55 E 5 3.00 Fog/Mist OVC007 60.1 59 96% 30.06 0.0
22 01:35 E 5 4.00 Fog/Mist OVC007 60.1 59 96% 30.08 0.0
22 01:15 SE 6 10.00 Overcast OVC007 60.3 59 96% 30.08 0.0
22 00:55 SE 7 3.00 Fog/Mist BKN007 BKN018 OVC024 60.4 59 62.6 60.4 95% 30.09 0.0
22 00:35 E 5 10.00 Overcast SCT007 OVC026 60.8 58.6 93% 30.1 0.0
22 00:15 E 6 10.00 Overcast BKN007 OVC030 60.8 59 94% 30.1 0.0
21 23:55 E 5 10.00 Overcast OVC007 60.8 59 94% 30.1 0.0
21 23:35 E 6 10.00 Overcast OVC007 61.2 59.2 93% 30.11 0.0
21 23:15 Calm 10.00 Overcast OVC007 61.2 59.4 94% 30.12 0.0
21 23:00 Calm 10.00 Overcast OVC007 61.2 59.4 94% 30.12 0.0
21 22:35 Calm 10.00 Overcast BKN009 OVC033 61.2 59.4 94% 30.12 0.0
21 22:15 E 3 10.00 Overcast SCT007 OVC033 61.2 59.2 93% 30.12 0.0
21 21:55 SE 5 10.00 Overcast SCT006 OVC033 61.7 59.5 93% 30.12 0.0
21 21:35 SE 3 10.00 Overcast SCT015 OVC033 61.3 59.9 95% 30.1 0.0
21 21:15 Calm 10.00 Overcast BKN017 OVC033 61.3 59.5 94% 30.1 0.0
21 20:55 SE 5 10.00 Overcast SCT007 BKN012 OVC019 61.7 59.9 94% 30.11 0.0
21 20:35 E 5 10.00 Overcast SCT007 OVC012 61.7 59.9 94% 30.13 0.0
21 20:15 Calm 10.00 Overcast SCT008 OVC012 62.1 59.9 93% 30.13 0.0
21 19:35 SE 5 10.00 Overcast SCT009 OVC013 62.6 60.6 93% 30.14 0.0
21 19:15 E 5 10.00 Light Drizzle OVC013 62.6 60.6 93% 30.14 0.0
21 18:55 SE 6 10.00 Light Rain OVC015 62.6 60.6 65.7 61.7 93% 30.15 0.0
21 18:35 E 3 10.00 Rain OVC015 63.1 60.1 90% 30.15 0.0
21 18:15 SE 3 10.00 Light Drizzle OVC015 63.7 59.2 85% 30.16 0.0
21 17:55 SE 5 10.00 Light Rain OVC015 64.4 59 83% 30.16 0.0
21 17:35 SE 3 10.00 Overcast OVC013 63.9 59 84% 30.17 0.0
21 17:15 SE 5 10.00 Overcast OVC013 64.4 58.8 82% 30.18 0.0
21 16:55 E 3 10.00 Overcast OVC013 64.4 59 83% 30.18 0.0
21 16:35 Calm 10.00 Overcast OVC013 64.4 58.5 81% 30.18 0.0
21 16:15 SE 7 10.00 Partly Cloudy SCT013 SCT100 65.1 58.8 80% 30.17 0.0
21 15:55 SE 8 10.00 Partly Cloudy SCT011 SCT090 64.4 58.1 80% 30.18 0.0
21 15:35 SE 5 10.00 Mostly Cloudy BKN011 BKN060 BKN090 65.3 59.4 81% 30.19 0.0
21 15:15 SE 9 10.00 Mostly Cloudy SCT011 SCT015 BKN060 64.4 60.4 87% 30.2 0.0
21 14:55 E 7 10.00 Overcast SCT009 BKN035 OVC055 63 59 87% 30.21 0.0
21 14:35 SE 5 5.00 Fog/Mist SCT007 BKN026 OVC035 62.2 59.9 92% 30.21 0.0
21 14:15 SE 3 7.00 Light Rain SCT007 BKN012 OVC060 62.2 59.9 92% 30.22 0.0
21 13:55 SE 5 5.00 Light Drizzle SCT009 BKN019 OVC060 62.1 59.9 93% 30.22 0.0
21 13:35 Calm 7.00 Rain SCT012 OVC019 62.1 59.9 93% 30.22 0.0
21 13:15 Calm 10.00 Rain SCT014 BKN021 OVC080 62.1 60.1 93% 30.23 0.0
21 12:55 Calm 10.00 Rain SCT019 BKN043 OVC090 61.9 58.8 64 60.3 90% 30.22 0.0 0.03
21 12:35 Calm 10.00 Light Drizzle SCT070 OVC100 61.9 58.3 88% 30.22 0.0
21 12:15 E 3 10.00 Light Drizzle BKN100 62.1 57.4 85% 30.22 0.0
21 11:55 E 6 10.00 Light Rain SCT024 SCT050 SCT110 61.9 58.1 88% 30.22 0.0 0.03
21 11:35 E 3 7.00 Light Rain SCT024 SCT031 SCT038 61.5 59.5 93% 30.21 0.0 0.03
21 11:15 E 3 5.00 Rain SCT026 SCT033 61.7 58.3 89% 30.24 0.0 0.01
21 10:55 Calm 4.00 Rain SCT027 SCT035 BKN050 62.1 58.3 88% 30.25 0.0
21 10:35 Calm 10.00 Light Rain SCT038 SCT044 OVC049 62.8 58.8 87% 30.27 0.0
21 10:15 SW 3 10.00 Rain BKN040 OVC110 63.1 58.5 85% 30.27 0.0
21 09:55 SW 3 10.00 Mostly Cloudy SCT070 SCT100 BKN120 63.7 56.8 79% 30.26 0.0
21 09:35 Calm 10.00 Overcast SCT041 SCT050 OVC070 64 57 78% 30.25 0.0
21 09:15 Calm 10.00 Overcast BKN039 OVC046 63.5 57 80% 30.26 0.0
21 08:55 Calm 10.00 Overcast SCT041 OVC048 63.5 57.6 81% 30.26 0.0
21 08:35 Calm 10.00 Overcast BKN041 OVC048 62.6 56.7 81% 30.27 0.0
21 08:15 Calm 10.00 Overcast BKN043 OVC050 61.7 56.3 83% 30.27 0.0
21 07:55 Calm 10.00 Overcast OVC041 61.7 56.3 83% 30.28 0.0
Date Time (cdt) Wind (mph) Vis. (mi.) Weather Sky Cond. Air Dwpt Max. Min. Relative Humidity Wind Chill (°F) Heat Index (°F) altimeter (in) sea level (mb) 1 hr 3 hr 6 hr
6 hour
Temperature (ºF) Pressure Precipitation (in)